SCP
-0 -0 0 0 0 0 0 0 0 0 0 0 0 0 0 0 0 0 0 0 0 0 0 0 0 0 0 0 0 0 0 0 0 0 0 0 0 0 0 0 0 0 0
0 -0 0 -0 -0 0 -0 0 0 0 0 0 -0 0 0 0 0 0 0 0 0 0 0 0 0 0 0 0 0 0 0 0 0 0 0 0 0 0 0 0 0 0 0
0 -0 -0 0 0 -0 0 0 0 0 0 0 -0 0 0 0 0 0 0 0 0 0 0 0 0 0 0 0 0 0 0 0 0 0 0 0 0 0 0 0 0 0 0
-0 -0 -0 0 0 0 0 0 0 0 0 0 0 0 0 0 0 0 0 0 0 0 0 0 0 0 0 0 0 0 0 0 0 0 0 0 0 0 0 0 0 0 0
-0 -0 -0 0 0 0 0 0 0 0 0 0 0 0 0 0 0 0 0 0 0 0 0 0 0 0 0 0 0 0 0 0 0 0 0 0 0 0 0 0 0 0 0
-0 -0 0 0 0 0 0 0 0 0 0 0 0 0 0 0 0 0 0 0 0 0 0 0 0 0 0 0 0 0 0 0 0 0 0 0 0 0 0 0 0 0 0
-0 -0 0 0 0 0 0 0 0 0 0 0 0 0 0 0 0 0 0 0 0 0 0 0 0 0 0 0 0 0 0 0 0 0 0 0 0 0 0 0 0 0 0
0 0 0 0 0 0 0 0 -0 -0 -0 0 0 0 0 0 0 0 0 0 0 0 0 0 0 0 0 0 0 0 0 0 0 0 0 0 0 0 0 0 0 0 0
0 0 0 0 0 0 0 0 0 0 -0 -0 0 0 0 0 0 0 0 0 0 0 0 0 0 0 0 0 0 0 0 0 0 0 0 0 0 0 0 0 0 0 0
-0 -0 0 0 -0 -0 0 0 0 0 -0 0 0 0 0 0 0 0 0 0 0 0 0 0 0 0 0 0 0 0 0 0 0 0 0 0 0 0 0 0 0 0 0
0 0 0 0 -0 0 0 0 0 0 0 0 0 0 0 0 0 0 0 0 0 0 0 0 0 0 0 0 0 0 0 0 0 0 0 0 0 1 0 1 1 1 1
0 0 0 0 0 0 0 0 0 0 0 0 0 0 0 0 0 0 0 0 0 0 0 0 0 0 0 0 0 0 0 0 0 0 0 0 1 1 1 1 1 1 0
0 0 0 0 0 0 0 0 0 0 0 0 0 0 0 0 0 0 0 0 0 0 0 0 0 0 0 0 0 0 0 0 0 0 0 0 0 1 1 1 1 1 1
0 0 0 0 0 0 0 0 0 0 0 0 0 0 0 0 0 0 0 0 0 0 0 0 0 0 0 0 0 0 0 0 0 0 0 0 0 0 1 1 1 1 1
0 0 0 0 0 0 0 0 0 0 0 0 0 0 0 0 0 0 0 0 0 0 0 0 0 0 0 0 0 0 0 0 0 0 0 0 0 0 0 0 0 1 1
0 0 0 0 0 0 0 0 0 0 0 0 0 0 0 0 0 0 0 0 0 0 0 0 0 0 0 0 0 0 0 0 0 0 0 0 0 0 0 0 0 0 0
0 0 0 0 0 0 0 0 0 0 0 0 0 0 0 0 0 0 0 0 0 0 0 0 0 0 0 0 0 0 0 0 0 0 0 0 0 0 0 0 0 0 0
0 0 0 0 0 0 0 0 0 0 0 0 0 0 0 0 0 0 0 0 0 0 0 0 0 0 0 0 0 0 0 0 0 0 0 0 0 0 0 0 0 0 0
0 0 0 0 0 0 0 0 0 0 0 0 0 0 0 0 0 0 0 0 0 0 0 0 0 0 0 0 0 0 0 0 0 0 0 0 0 0 0 0 0 0 0
0 0 0 0 0 0 0 0 0 0 0 0 0 0 0 0 0 0 0 0 0 0 0 0 0 0 0 0 0 0 0 0 0 0 0 0 0 0 0 0 0 0 1
0 0 0 0 0 0 0 0 0 0 0 0 0 0 0 0 0 0 0 0 0 0 0 0 0 0 0 0 0 0 0 0 0 0 0 0 0 0 0 0 0 0 0
0 0 0 0 0 0 0 0 0 0 0 0 0 0 0 0 0 0 0 0 0 0 0 0 0 0 0 0 0 0 0 0 0 0 0 0 0 0 0 0 0 0 0
0 0 0 0 0 0 0 0 0 0 0 0 0 0 0 0 0 0 0 0 0 0 0 0 0 0 0 0 0 0 0 0 0 0 0 0 0 0 0 0 0 0 0
0 0 0 0 0 0 0 0 0 0 0 0 0 0 0 0 0 0 0 0 0 0 0 0 0 0 0 0 0 0 0 0 0 0 0 0 0 0 0 0 0 0 0
0 0 0 0 0 0 0 0 0 0 0 0 0 0 0 0 0 0 0 0 0 0 0 0 0 0 0 0 0 0 0 0 0 0 0 0 0 0 0 0 0 0 0
0 0 0 0 0 0 0 0 0 0 0 0 0 0 0 0 0 0 0 0 0 0 0 0 0 0 0 0 0 0 0 0 0 0 0 0 0 0 0 0 0 0 0
Wind_Speed_500mb
29 24 18 13 13 15 16 16 11 10 10 9 10 11 10 9 8 6 6 4 5 3 4 6 7 8 8 8 9 7 6 3 4 5 6 7 8 11 8 11 13 14 17
27 23 18 13 11 11 12 14 12 11 12 10 9 7 8 7 4 3 3 4 5 6 8 3 1 3 6 10 11 11 10 8 3 6 8 11 11 12 12 10 11 13 17
25 21 15 12 4 6 10 9 9 9 10 8 7 7 5 4 3 2 3 4 6 7 8 5 3 6 7 6 10 12 13 13 12 11 8 10 12 12 13 11 11 14 16
25 20 12 5 2 5 5 5 7 8 8 7 5 5 5 3 3 3 5 7 9 10 12 13 13 13 13 13 13 14 14 15 15 17 20 17 17 15 14 14 12 15 17
25 20 14 6 1 3 5 10 12 12 11 9 9 7 7 7 8 7 7 9 13 15 17 18 17 18 18 18 18 19 19 19 21 22 21 20 21 19 17 18 17 16 17
24 17 11 6 3 3 9 12 15 17 17 16 14 13 14 13 13 14 14 14 16 19 21 22 21 20 20 21 21 22 21 24 26 30 28 25 26 24 17 22 21 21 20
21 16 13 9 4 5 9 16 22 22 21 19 18 16 15 14 14 11 10 11 15 19 23 26 27 26 25 26 25 26 27 27 27 32 35 29 28 25 26 22 21 22 21
17 18 14 8 4 4 10 19 25 27 27 24 17 15 13 12 10 8 10 12 13 14 15 17 20 24 30 31 31 31 30 30 33 32 35 37 33 32 31 32 23 22 24
23 16 10 5 2 4 9 17 20 21 24 26 21 17 13 14 14 13 12 14 14 13 16 13 11 12 17 25 31 35 34 34 34 34 35 37 37 37 37 38 30 29 27
22 14 9 2 3 5 7 15 15 17 18 21 24 20 17 17 18 19 20 19 18 13 16 11 12 14 14 13 16 23 34 37 35 34 33 36 42 43 41 38 38 34 30
23 13 8 3 3 6 10 16 14 12 11 14 18 15 21 24 24 20 15 17 16 13 17 17 17 19 17 14 15 16 19 30 37 31 33 35 35 36 37 35 39 38 34
27 20 15 7 6 11 14 18 20 17 14 17 17 19 22 24 26 26 29 30 27 21 16 15 18 23 24 25 22 19 21 21 23 27 29 27 31 31 36 40 39 40 36
33 25 14 7 7 7 12 18 19 21 21 24 23 26 29 30 30 36 31 28 27 27 19 19 24 29 29 28 23 15 15 22 20 18 14 18 21 24 30 40 44 44 41
35 24 18 13 6 4 9 14 17 22 25 25 26 20 24 29 31 39 28 24 22 20 19 20 26 26 19 13 16 15 15 15 19 21 20 19 18 15 22 30 42 46 43
37 34 26 20 17 14 16 16 18 17 14 22 25 27 26 27 31 37 32 22 25 24 21 21 26 26 21 22 20 22 21 21 22 22 24 24 26 24 23 22 30 42 45
38 39 35 31 26 24 23 22 24 17 17 19 20 21 29 27 30 28 27 29 32 32 23 28 33 26 25 25 28 31 33 32 29 30 30 28 25 35 33 36 35 30 33
44 44 42 38 33 31 29 25 29 25 25 23 24 25 27 28 28 26 33 34 39 30 32 30 27 25 30 37 44 41 38 34 37 37 35 29 29 27 32 41 40 39 44
45 50 47 44 39 37 35 34 32 32 33 34 27 32 37 34 29 32 38 41 40 32 29 34 32 31 36 39 43 37 31 29 30 36 39 34 29 21 22 33 42 46 37
38 42 47 47 43 43 43 43 43 42 42 41 37 36 36 37 37 36 36 39 39 34 33 30 29 37 44 44 43 36 33 31 27 29 41 39 32 31 32 28 30 42 44
37 37 44 50 52 52 52 46 53 55 54 51 48 40 31 32 36 39 39 46 32 33 33 30 38 46 41 43 40 37 33 26 25 24 22 24 34 32 34 36 34 34 36
25 28 34 39 48 50 54 50 50 58 63 60 52 49 38 36 38 42 42 39 35 39 37 35 37 39 37 33 40 39 30 18 23 15 16 13 19 34 36 36 36 34 37
22 22 22 30 36 40 44 46 55 55 54 51 43 45 45 42 36 40 42 42 37 38 39 38 39 40 38 32 34 37 21 25 9 17 10 20 22 28 33 36 45 47 45
22 18 21 24 24 28 32 36 47 47 48 47 43 41 46 39 41 42 44 44 46 44 40 37 37 38 38 28 28 23 13 9 39 23 23 18 21 30 35 44 47 48 46
14 16 17 18 21 24 31 37 38 43 46 45 52 60 51 51 45 49 45 46 47 37 36 35 38 35 37 32 28 27 28 32 22 29 39 34 31 34 38 44 50 56 54
18 15 12 15 18 19 22 27 37 41 41 38 43 47 48 50 50 54 51 45 39 37 35 34 36 36 35 34 28 28 30 30 34 40 45 53 47 45 48 49 52 55 58
21 15 15 17 17 17 19 24 35 40 36 37 42 48 53 50 53 59 52 41 37 37 32 33 32 31 30 30 27 24 27 32 36 40 47 53 59 62 60 43 37 42 51
Wind_Direction_500mb
166 150 152 148 122 96 87 75 76 77 75 81 94 101 110 125 138 144 152 163 171 168 207 243 249 247 235 236 242 258 269 254 211 206 193 173 159 152 145 154 152 153 148
160 154 153 133 116 87 53 41 55 66 75 78 74 70 84 95 102 135 171 191 196 208 205 178 216 278 243 231 233 237 243 250 192 203 194 178 179 177 173 173 153 160 159
171 153 150 153 128 46 30 33 47 53 61 52 57 75 74 61 75 160 221 240 246 246 251 255 275 238 226 230 221 229 226 219 208 188 204 196 189 191 194 202 187 180 174
185 184 169 194 335 10 12 27 31 24 31 24 29 15 13 17 350 307 281 266 265 261 255 252 253 252 245 237 228 224 220 217 212 206 199 203 191 210 217 214 213 198 191
176 183 179 169 328 346 15 20 5 354 343 340 341 340 329 321 311 304 294 287 286 285 282 272 263 256 253 249 235 228 223 223 218 213 199 197 197 198 217 221 219 216 211
159 159 156 159 153 15 9 6 350 335 326 326 321 312 303 298 294 293 296 296 289 283 281 277 274 269 265 258 252 248 240 232 224 215 213 221 220 218 213 219 227 225 220
149 149 146 145 126 41 13 356 354 352 340 330 315 302 294 289 284 294 307 312 308 305 298 285 276 269 264 260 254 246 242 239 238 227 225 228 231 229 234 233 227 229 226
150 150 153 135 92 9 353 0 4 13 14 5 339 311 289 283 285 312 325 326 333 341 325 311 293 278 267 261 257 253 249 247 242 237 229 224 229 237 236 230 234 221 231
154 160 153 161 189 8 352 355 0 3 4 3 356 341 322 309 311 309 321 324 341 359 359 341 323 300 285 275 265 256 251 249 249 245 240 232 230 233 246 237 233 230 238
165 166 154 205 283 340 340 336 346 344 351 350 350 339 327 332 314 309 307 324 329 332 335 327 322 311 311 299 288 272 256 251 255 250 246 238 232 239 246 240 232 234 235
177 186 208 254 352 326 325 324 325 322 312 333 338 348 337 332 320 306 310 313 326 312 318 315 322 320 314 307 313 308 283 258 249 251 252 246 241 239 241 232 229 233 241
203 192 213 227 327 329 327 321 325 322 310 313 312 329 329 343 338 325 307 297 293 285 294 308 313 309 307 305 304 296 285 279 263 257 258 246 239 237 236 240 237 237 245
184 191 189 233 281 327 332 322 314 317 318 319 311 320 320 329 329 327 312 301 289 282 285 305 313 301 294 301 294 282 282 267 270 260 262 245 243 240 243 239 234 235 235
185 189 189 201 233 283 333 339 332 309 311 326 312 313 317 329 324 335 326 294 274 274 291 311 317 318 298 276 285 277 297 291 276 267 267 269 259 252 243 240 236 233 233
197 210 220 249 249 281 308 329 338 311 295 333 326 306 309 311 314 327 339 315 277 295 288 300 309 308 296 297 300 299 290 291 286 278 262 257 255 246 235 241 236 234 236
218 236 253 264 263 283 286 304 323 316 303 309 318 309 303 299 303 313 335 341 317 288 280 298 310 297 303 303 306 297 291 278 277 276 269 259 250 248 247 245 241 236 234
247 251 252 259 261 284 282 285 306 314 308 308 305 291 294 298 308 311 323 324 332 298 282 293 301 301 303 299 301 298 293 292 269 267 269 261 251 243 250 247 250 250 242
242 250 257 261 265 281 278 282 291 301 301 303 306 299 280 288 295 303 307 314 323 310 290 285 290 288 298 302 309 304 298 293 280 269 264 259 254 241 240 246 252 255 255
250 249 253 257 269 281 282 281 283 287 288 295 292 305 294 278 283 280 299 311 314 302 308 291 294 296 300 300 304 305 305 292 285 277 266 261 257 257 254 252 247 252 249
250 256 255 255 265 273 274 283 296 286 282 286 288 293 305 293 287 291 304 312 292 290 294 293 297 300 294 302 301 306 311 301 286 281 292 266 255 256 260 259 253 252 255
253 265 265 266 268 271 271 282 293 298 283 283 280 282 288 301 298 296 298 305 289 284 287 283 296 306 291 302 306 305 304 297 289 266 266 274 267 263 271 253 251 252 251
260 262 274 276 277 280 287 288 291 299 294 286 277 286 286 291 296 291 289 297 293 293 281 284 288 294 296 303 306 315 316 315 238 329 283 284 280 276 271 266 254 250 255
265 277 286 296 299 294 293 294 290 298 302 289 285 300 284 280 292 283 290 288 294 289 280 276 284 284 290 295 301 293 304 292 313 310 290 287 295 305 285 271 261 252 248
251 262 272 277 286 282 286 286 295 302 304 298 287 299 290 280 281 284 285 289 292 279 282 278 283 276 284 289 285 283 283 278 289 300 302 301 311 306 309 289 273 257 251
222 228 245 264 268 288 285 290 297 301 302 303 297 301 302 280 278 277 281 286 282 278 284 278 278 270 277 282 279 285 286 282 278 274 291 302 305 306 311 299 276 262 247
195 204 258 268 276 281 296 311 319 307 307 307 309 314 312 299 274 271 277 274 275 278 277 280 272 267 277 277 273 279 285 289 294 290 287 296 302 307 311 306 282 267 253
Wind_Speed_850mb
29 24 18 13 13 15 16 16 11 10 10 9 10 11 10 9 8 6 6 4 5 3 4 6 7 8 8 8 9 7 6 3 4 5 6 7 8 11 8 11 13 14 17
27 23 18 13 11 11 12 14 12 11 12 10 9 7 8 7 4 3 3 4 5 6 8 3 1 3 6 10 11 11 10 8 3 6 8 11 11 12 12 10 11 13 17
25 21 15 12 4 6 10 9 9 9 10 8 7 7 5 4 3 2 3 4 6 7 8 5 3 6 7 6 10 12 13 13 12 11 8 10 12 12 13 11 11 14 16
25 20 12 5 2 5 5 5 7 8 8 7 5 5 5 3 3 3 5 7 9 10 12 13 13 13 13 13 13 14 14 15 15 17 20 17 17 15 14 14 12 15 17
25 20 14 6 1 3 5 10 12 12 11 9 9 7 7 7 8 7 7 9 13 15 17 18 17 18 18 18 18 19 19 19 21 22 21 20 21 19 17 18 17 16 17
24 17 11 6 3 3 9 12 15 17 17 16 14 13 14 13 13 14 14 14 16 19 21 22 21 20 20 21 21 22 21 24 26 30 28 25 26 24 17 22 21 21 20
21 16 13 9 4 5 9 16 22 22 21 19 18 16 15 14 14 11 10 11 15 19 23 26 27 26 25 26 25 26 27 27 27 32 35 29 28 25 26 22 21 22 21
17 18 14 8 4 4 10 19 25 27 27 24 17 15 13 12 10 8 10 12 13 14 15 17 20 24 30 31 31 31 30 30 33 32 35 37 33 32 31 32 23 22 24
23 16 10 5 2 4 9 17 20 21 24 26 21 17 13 14 14 13 12 14 14 13 16 13 11 12 17 25 31 35 34 34 34 34 35 37 37 37 37 38 30 29 27
22 14 9 2 3 5 7 15 15 17 18 21 24 20 17 17 18 19 20 19 18 13 16 11 12 14 14 13 16 23 34 37 35 34 33 36 42 43 41 38 38 34 30
23 13 8 3 3 6 10 16 14 12 11 14 18 15 21 24 24 20 15 17 16 13 17 17 17 19 17 14 15 16 19 30 37 31 33 35 35 36 37 35 39 38 34
27 20 15 7 6 11 14 18 20 17 14 17 17 19 22 24 26 26 29 30 27 21 16 15 18 23 24 25 22 19 21 21 23 27 29 27 31 31 36 40 39 40 36
33 25 14 7 7 7 12 18 19 21 21 24 23 26 29 30 30 36 31 28 27 27 19 19 24 29 29 28 23 15 15 22 20 18 14 18 21 24 30 40 44 44 41
35 24 18 13 6 4 9 14 17 22 25 25 26 20 24 29 31 39 28 24 22 20 19 20 26 26 19 13 16 15 15 15 19 21 20 19 18 15 22 30 42 46 43
37 34 26 20 17 14 16 16 18 17 14 22 25 27 26 27 31 37 32 22 25 24 21 21 26 26 21 22 20 22 21 21 22 22 24 24 26 24 23 22 30 42 45
38 39 35 31 26 24 23 22 24 17 17 19 20 21 29 27 30 28 27 29 32 32 23 28 33 26 25 25 28 31 33 32 29 30 30 28 25 35 33 36 35 30 33
44 44 42 38 33 31 29 25 29 25 25 23 24 25 27 28 28 26 33 34 39 30 32 30 27 25 30 37 44 41 38 34 37 37 35 29 29 27 32 41 40 39 44
45 50 47 44 39 37 35 34 32 32 33 34 27 32 37 34 29 32 38 41 40 32 29 34 32 31 36 39 43 37 31 29 30 36 39 34 29 21 22 33 42 46 37
38 42 47 47 43 43 43 43 43 42 42 41 37 36 36 37 37 36 36 39 39 34 33 30 29 37 44 44 43 36 33 31 27 29 41 39 32 31 32 28 30 42 44
37 37 44 50 52 52 52 46 53 55 54 51 48 40 31 32 36 39 39 46 32 33 33 30 38 46 41 43 40 37 33 26 25 24 22 24 34 32 34 36 34 34 36
25 28 34 39 48 50 54 50 50 58 63 60 52 49 38 36 38 42 42 39 35 39 37 35 37 39 37 33 40 39 30 18 23 15 16 13 19 34 36 36 36 34 37
22 22 22 30 36 40 44 46 55 55 54 51 43 45 45 42 36 40 42 42 37 38 39 38 39 40 38 32 34 37 21 25 9 17 10 20 22 28 33 36 45 47 45
22 18 21 24 24 28 32 36 47 47 48 47 43 41 46 39 41 42 44 44 46 44 40 37 37 38 38 28 28 23 13 9 39 23 23 18 21 30 35 44 47 48 46
14 16 17 18 21 24 31 37 38 43 46 45 52 60 51 51 45 49 45 46 47 37 36 35 38 35 37 32 28 27 28 32 22 29 39 34 31 34 38 44 50 56 54
18 15 12 15 18 19 22 27 37 41 41 38 43 47 48 50 50 54 51 45 39 37 35 34 36 36 35 34 28 28 30 30 34 40 45 53 47 45 48 49 52 55 58
21 15 15 17 17 17 19 24 35 40 36 37 42 48 53 50 53 59 52 41 37 37 32 33 32 31 30 30 27 24 27 32 36 40 47 53 59 62 60 43 37 42 51
Wind_Direction_850mb
166 150 152 148 122 96 87 75 76 77 75 81 94 101 110 125 138 144 152 163 171 168 207 243 249 247 235 236 242 258 269 254 211 206 193 173 159 152 145 154 152 153 148
160 154 153 133 116 87 53 41 55 66 75 78 74 70 84 95 102 135 171 191 196 208 205 178 216 278 243 231 233 237 243 250 192 203 194 178 179 177 173 173 153 160 159
171 153 150 153 128 46 30 33 47 53 61 52 57 75 74 61 75 160 221 240 246 246 251 255 275 238 226 230 221 229 226 219 208 188 204 196 189 191 194 202 187 180 174
185 184 169 194 335 10 12 27 31 24 31 24 29 15 13 17 350 307 281 266 265 261 255 252 253 252 245 237 228 224 220 217 212 206 199 203 191 210 217 214 213 198 191
176 183 179 169 328 346 15 20 5 354 343 340 341 340 329 321 311 304 294 287 286 285 282 272 263 256 253 249 235 228 223 223 218 213 199 197 197 198 217 221 219 216 211
159 159 156 159 153 15 9 6 350 335 326 326 321 312 303 298 294 293 296 296 289 283 281 277 274 269 265 258 252 248 240 232 224 215 213 221 220 218 213 219 227 225 220
149 149 146 145 126 41 13 356 354 352 340 330 315 302 294 289 284 294 307 312 308 305 298 285 276 269 264 260 254 246 242 239 238 227 225 228 231 229 234 233 227 229 226
150 150 153 135 92 9 353 0 4 13 14 5 339 311 289 283 285 312 325 326 333 341 325 311 293 278 267 261 257 253 249 247 242 237 229 224 229 237 236 230 234 221 231
154 160 153 161 189 8 352 355 0 3 4 3 356 341 322 309 311 309 321 324 341 359 359 341 323 300 285 275 265 256 251 249 249 245 240 232 230 233 246 237 233 230 238
165 166 154 205 283 340 340 336 346 344 351 350 350 339 327 332 314 309 307 324 329 332 335 327 322 311 311 299 288 272 256 251 255 250 246 238 232 239 246 240 232 234 235
177 186 208 254 352 326 325 324 325 322 312 333 338 348 337 332 320 306 310 313 326 312 318 315 322 320 314 307 313 308 283 258 249 251 252 246 241 239 241 232 229 233 241
203 192 213 227 327 329 327 321 325 322 310 313 312 329 329 343 338 325 307 297 293 285 294 308 313 309 307 305 304 296 285 279 263 257 258 246 239 237 236 240 237 237 245
184 191 189 233 281 327 332 322 314 317 318 319 311 320 320 329 329 327 312 301 289 282 285 305 313 301 294 301 294 282 282 267 270 260 262 245 243 240 243 239 234 235 235
185 189 189 201 233 283 333 339 332 309 311 326 312 313 317 329 324 335 326 294 274 274 291 311 317 318 298 276 285 277 297 291 276 267 267 269 259 252 243 240 236 233 233
197 210 220 249 249 281 308 329 338 311 295 333 326 306 309 311 314 327 339 315 277 295 288 300 309 308 296 297 300 299 290 291 286 278 262 257 255 246 235 241 236 234 236
218 236 253 264 263 283 286 304 323 316 303 309 318 309 303 299 303 313 335 341 317 288 280 298 310 297 303 303 306 297 291 278 277 276 269 259 250 248 247 245 241 236 234
247 251 252 259 261 284 282 285 306 314 308 308 305 291 294 298 308 311 323 324 332 298 282 293 301 301 303 299 301 298 293 292 269 267 269 261 251 243 250 247 250 250 242
242 250 257 261 265 281 278 282 291 301 301 303 306 299 280 288 295 303 307 314 323 310 290 285 290 288 298 302 309 304 298 293 280 269 264 259 254 241 240 246 252 255 255
250 249 253 257 269 281 282 281 283 287 288 295 292 305 294 278 283 280 299 311 314 302 308 291 294 296 300 300 304 305 305 292 285 277 266 261 257 257 254 252 247 252 249
250 256 255 255 265 273 274 283 296 286 282 286 288 293 305 293 287 291 304 312 292 290 294 293 297 300 294 302 301 306 311 301 286 281 292 266 255 256 260 259 253 252 255
253 265 265 266 268 271 271 282 293 298 283 283 280 282 288 301 298 296 298 305 289 284 287 283 296 306 291 302 306 305 304 297 289 266 266 274 267 263 271 253 251 252 251
260 262 274 276 277 280 287 288 291 299 294 286 277 286 286 291 296 291 289 297 293 293 281 284 288 294 296 303 306 315 316 315 238 329 283 284 280 276 271 266 254 250 255
265 277 286 296 299 294 293 294 290 298 302 289 285 300 284 280 292 283 290 288 294 289 280 276 284 284 290 295 301 293 304 292 313 310 290 287 295 305 285 271 261 252 248
251 262 272 277 286 282 286 286 295 302 304 298 287 299 290 280 281 284 285 289 292 279 282 278 283 276 284 289 285 283 283 278 289 300 302 301 311 306 309 289 273 257 251
222 228 245 264 268 288 285 290 297 301 302 303 297 301 302 280 278 277 281 286 282 278 284 278 278 270 277 282 279 285 286 282 278 274 291 302 305 306 311 299 276 262 247
195 204 258 268 276 281 296 311 319 307 307 307 309 314 312 299 274 271 277 274 275 278 277 280 272 267 277 277 273 279 285 289 294 290 287 296 302 307 311 306 282 267 253